DELTA 1 DEB, 42092

Orbit data source: Space-Track

DELTA 1 DEB, 42092 is space debris in SSO originally from a launch on Sun, 15 Dec 1968 UTC launched from the Air Force Western Test Range (AFWTR). Debris objects in space refer to the collection of defunct objects orbiting the Earth. Examples of debris include non-operational satellites, rocket bodies, and fragments generated from explosions, collisions, or faulty payload assembly.

Loading next visibility...
Identifier
42092, 1968-114U
Orbit
SSO
Country
Flag of USUS
Related business
Manufacturer
Aerojet
Mission
Spacecraft
Bus & Motor
Unknown
Mass
Unknown
Launch date (UTC)
1968-12-15 (58 years ago)
Launch vehicle
Unknown
Launch site
Air Force Western Test Range (AFWTR)
Object type
Payload
Rocket body
Debris
Shape & HBR
Unknown shape, 0.1 m
Radar Cross Section
Medium (>0.1 m² and <1 m²)

Expand to show TLE details & history
Last TLE update: 3 days ago

TLE from 3 days ago
0 DELTA 1 DEB
1 42092U 68114U   26170.53515650  .00000325  00000-0  21035-2 0  9996
2 42092 101.6604 281.1679 0040754 150.7642 209.5727 12.60857403578262
Epoch: 2026-06-19T12:50Z
TLE epoch observation values (Epoch: 2026-06-19T12:50:37.521Z)
Latitude
-0.00003°
Longitude
-179.25117°
Altitude
1,449.673 km
Speed
7.125 km/s
True Right ascension
18h 44m 40s
True Declination
0° 00' 00"
Sunlit
Object was in full shadow at epoch
Visualization orbit readout
Latitude
Unknown
Longitude
Unknown
Altitude
Unknown
Speed
Unknown
Apparent Right ascension
Unknown
Apparent Declination
Unknown
Sunlit
N/A
Visualization observer readout
Local Sidereal Time
21:51:22
Azimuth
Unknown
Elevation
Unknown
Doppler factor
Unknown
Orbital elements
Apogee altitude
1,448.703 km
Perigee altitude
1,385.167 km
Semi-major axis
7,795.072 km
Eccentricity
0.00408
Inclination
101.6604°
RAAN
281.1679°
Arg. of periapsis
150.7642°
True anomaly
209.34324°
Mean anomaly
209.5727°
Eccentric anomaly
209.45787°
Mean motion
3.15365 °/min
Orbital period
114.15 mins
BSTAR
0.0021035
Loading maneuver chart data...
Computing Atmospheric mass density...
Loading historical data...
Loading historical data...
Loading historical data...
Loading historical data...
Loading historical data...
Loading historical data...
Loading historical data...

Documentation

Showing up to 5 results
|